Weather History for Camp Pendleton, CA

Change the Weather History Date:

Thursday, February 13, 2014

  Actual Average Record
Temperature  
Mean Temperature 58 °F -  
Max Temperature 79 °F 64 °F 82 °F (2006)
Min Temperature 37 °F 40 °F 30 °F (1999)
Degree Days  
Heating Degree Days 7    
Growing Degree Days 8 (Base 50)    
Moisture  
Dew Point 38 °F    
Average Humidity 57    
Maximum Humidity 89    
Minimum Humidity 19    
Precipitation  
Precipitation 0.00 in - - ()
Sea Level Pressure  
Sea Level Pressure 30.03 in    
Wind  
Wind Speed 3 mph (SSW)    
Max Wind Speed 10 mph    
Max Gust Speed 16 mph    
Visibility 7 miles    
Events      
Averages and records for this station are not official NWS values.
T = Trace of Precipitation, MM = Missing Value Source: NWS Daily Summary

Daily Weather History Graph

Daily Weather History Graph

Search for Another Location

Airport:

Trip Planner

Search our weather history database for the weather conditions in past years. The results will help you decide how hot, cold, wet, or windy it might be!

Date:

Astronomy

Feb. 13, 2014 Rise Set
Actual Time 6:35 AM PST 5:32 PM PST
Civil Twilight 6:09 AM PST 5:58 PM PST
Nautical Twilight 5:40 AM PST 6:27 PM PST
Astronomical Twilight 5:11 AM PST 6:56 PM PST
Moon 4:44 PM PST (2/13) 5:30 AM PST (2/13)
Length of Visible Light 11h 48m
Length of Day
10h 57m
Waxing Gibbous, 99% of the Moon is Illuminated
Feb 13
Waxing Gibbous
Feb 14
Full
Feb 22
Last Quarter
Mar 1
New
Mar 8
First Quarter

Hourly Weather History & Observations

Time (PST) Temp. Windchill Dew Point Humidity Pressure Visibility Wind Dir Wind Speed Gust Speed Precip Events Conditions
12:54 AM 41.0 °F 39.0 °F 37.0 °F 86% 30.07 in 5.0 mi North 3.5 mph - N/A   Clear
1:54 AM 41.0 °F - 36.0 °F 82% 30.06 in 5.0 mi Calm Calm - N/A   Haze
2:54 AM 41.0 °F - 36.0 °F 82% 30.05 in 6.0 mi Calm Calm - N/A   Haze
3:54 AM 39.9 °F - 36.0 °F 86% 30.04 in 6.0 mi Calm Calm - N/A   Clear
4:54 AM 41.0 °F - 35.1 °F 79% 30.04 in 6.0 mi Calm Calm - N/A   Haze
5:54 AM 37.9 °F - 34.0 °F 86% 30.06 in 6.0 mi Calm Calm - N/A   Clear
6:54 AM 37.9 °F - 35.1 °F 89% 30.07 in 7.0 mi Calm Calm - N/A   Mostly Cloudy
7:54 AM 48.0 °F - 39.9 °F 74% 30.08 in 7.0 mi Calm Calm - N/A   Mostly Cloudy
8:54 AM 57.9 °F - 41.0 °F 53% 30.08 in 8.0 mi Calm Calm - N/A   Mostly Cloudy
9:54 AM 68.0 °F - 39.9 °F 36% 30.07 in 7.0 mi South 3.5 mph - N/A   Mostly Cloudy
10:54 AM 78.1 °F - 32.0 °F 19% 30.06 in 8.0 mi Calm Calm - N/A   Mostly Cloudy
11:54 AM 79.0 °F - 39.0 °F 24% 30.02 in 7.0 mi South 9.2 mph - N/A   Mostly Cloudy
12:54 PM 79.0 °F - 36.0 °F 21% 29.99 in 7.0 mi South 10.4 mph - N/A   Scattered Clouds
1:54 PM 79.0 °F - 34.0 °F 20% 29.97 in 8.0 mi SW 9.2 mph - N/A   Scattered Clouds
2:54 PM 75.0 °F - 37.9 °F 26% 29.97 in 8.0 mi SSW 10.4 mph 16.1 mph N/A   Scattered Clouds
3:54 PM 73.0 °F - 37.0 °F 27% 29.97 in 8.0 mi WSW 8.1 mph - N/A   Scattered Clouds
4:54 PM 69.1 °F - 39.9 °F 35% 29.98 in 7.0 mi SSW 5.8 mph - N/A   Scattered Clouds
5:54 PM 64.0 °F - 43.0 °F 46% 29.99 in 9.0 mi South 3.5 mph - N/A   Partly Cloudy
6:54 PM 57.9 °F - 42.1 °F 56% 30.00 in 9.0 mi Calm Calm - N/A   Clear
7:54 PM 53.1 °F - 41.0 °F 64% 30.01 in 9.0 mi Calm Calm - N/A   Clear
8:54 PM 52.0 °F - 41.0 °F 66% 30.02 in 9.0 mi NE 3.5 mph - N/A   Clear
9:54 PM 50.0 °F - 39.0 °F 66% 30.02 in 9.0 mi NE 4.6 mph - N/A   Clear
10:54 PM 46.0 °F - 37.9 °F 73% 30.03 in 9.0 mi Calm Calm - N/A   Clear
11:54 PM 46.0 °F - 37.9 °F 73% 30.03 in 8.0 mi Calm Calm - N/A   Clear